GFSSE_850_dewp_000.txt.gz
Dewpoint
5 9 12 12 12 12 12 13 13 13 12 11 11 11 12 11 12 12 12 10 10 10 9 9 8 7 6 6 7 5 2 5 4 7 7 -1 0 1 5 8 8 9 9
5 7 11 12 11 11 12 12 13 13 13 12 12 11 10 8 10 12 11 10 8 7 7 7 7 6 5 6 6 6 6 5 4 3 1 1 -2 0 1 5 5 7 9
3 5 8 11 11 11 12 13 13 12 12 12 11 10 10 10 8 10 11 8 6 6 6 7 8 8 7 7 6 6 7 7 6 6 6 3 -1 -3 2 4 5 4 7
4 2 4 6 7 7 8 8 9 8 10 9 5 4 6 10 9 8 7 5 5 6 8 9 8 6 8 8 7 9 10 9 9 8 7 5 3 -1 2 6 6 4 3
5 3 1 -0 1 1 1 1 1 2 4 4 1 0 2 6 10 11 11 10 8 7 7 6 6 7 8 7 7 8 9 10 10 9 8 7 7 4 8 7 6 6 5
4 2 2 0 -3 -4 -5 -5 -5 -5 -4 -3 -2 -1 -1 -1 3 3 1 -2 -2 4 8 9 8 7 7 7 7 7 8 10 7 9 10 9 8 5 5 8 10 9 7
0 0 -3 -4 -5 -6 -6 -6 -5 -3 -2 -1 -1 -1 -1 1 2 2 1 2 1 3 5 7 9 8 7 8 9 7 8 8 8 10 10 10 10 8 8 7 8 9 8
-1 -2 -2 -1 -1 -2 -3 -1 -0 1 1 1 1 2 3 3 2 1 -1 -2 1 2 3 4 4 1 -2 1 3 7 8 10 9 8 9 10 10 10 9 8 8 9 9
1 -1 1 1 0 0 -1 0 2 3 2 2 2 2 2 2 1 0 -1 -4 -4 -4 -2 2 3 3 3 4 6 7 8 9 8 9 8 7 9 9 10 9 9 10 10
6 6 5 4 0 -3 -3 -2 2 5 5 3 3 2 1 1 1 -1 -5 -11 -11 -8 -7 -5 -3 -4 -3 -1 3 6 9 10 9 9 8 8 8 8 9 10 9 10 10
8 7 7 6 0 -4 -5 -6 -1 1 4 5 6 2 0 1 -0 -6 -9 -11 -8 -7 -6 -9 -10 -9 -6 -2 4 7 9 9 9 9 7 6 6 8 8 7 8 8 10
7 6 8 4 -0 -3 -4 -5 -4 -5 -3 1 2 4 1 -2 -4 -7 -10 -9 -8 -8 -8 -6 -12 -10 -7 -4 1 5 6 6 6 6 7 7 6 6 7 8 8 9 11
8 8 9 4 0 -2 -3 -1 -3 -4 -1 2 4 1 -0 -3 -4 -8 -8 -6 -6 -9 -10 -7 -10 -10 -4 -5 -5 -2 -0 0 0 5 6 6 6 6 5 7 7 10 11
7 9 9 3 -2 -3 -3 -3 -3 -3 2 5 7 5 2 -1 -3 -5 -6 -7 -7 -7 -7 -7 -9 -9 -8 -7 -6 -7 -7 -8 -9 -4 -1 3 7 8 6 6 9 9 9
8 8 8 -1 -4 -4 -4 -4 -4 -1 3 5 6 6 5 4 2 1 -5 -8 -7 -6 -6 -5 -5 -6 -9 -12 -13 -13 -14 -14 -13 -11 -8 -0 4 6 7 7 6 8 9
5 7 4 -3 -4 -4 -4 -4 -3 -2 -1 0 2 4 5 3 -1 -4 -7 -7 -7 -6 -5 -4 -4 -7 -10 -11 -11 -11 -10 -8 -8 -8 -9 -9 -7 1 5 6 6 6 6
1 6 -0 -3 -4 -4 -5 -5 -5 -4 -4 -4 -2 -0 -0 -1 -2 -4 -6 -6 -6 -6 -6 -5 -6 -7 -10 -10 -8 -7 -7 -7 -8 -8 -8 -8 -8 -8 -7 -3 5 7 7
2 2 -2 -4 -4 -6 -5 -5 -5 -5 -5 -5 -5 -5 -5 -5 -5 -5 -6 -6 -5 -5 -8 -9 -8 -8 -9 -7 -6 -6 -7 -8 -7 -6 -7 -8 -8 -8 -5 -4 -4 -3 4
2 -1 -3 -4 -5 -5 -4 -4 -4 -4 -4 -4 -4 -4 -5 -5 -5 -5 -6 -7 -5 -5 -6 -7 -8 -7 -6 -5 -6 -6 -7 -6 -6 -7 -8 -9 -9 -6 -4 -3 -3 -1 -0
-1 -3 -3 -5 -6 -3 -3 -3 -3 -3 -3 -3 -3 -3 -3 -4 -5 -5 -6 -6 -5 -5 -5 -6 -6 -6 -6 -6 -6 -6 -7 -7 -7 -7 -7 -8 -8 -10 -8 -7 -6 -3 -2
-3 -3 -4 -5 -3 -3 -3 -3 -2 -2 -2 -2 -2 -2 -3 -3 -3 -4 -5 -5 -6 -5 -6 -5 -6 -5 -5 -5 -5 -6 -7 -7 -8 -7 -7 -7 -7 -8 -9 -10 -8 -7 -4
-4 -4 -5 -5 -4 -3 -3 -3 -3 -3 -2 -2 -2 -1 -1 -2 -2 -2 -3 -3 -4 -5 -5 -5 -5 -5 -5 -5 -4 -5 -5 -6 -6 -7 -7 -7 -6 -7 -8 -9 -9 -11 -11
-4 -4 -4 -4 -4 -4 -3 -3 -3 -2 -2 -1 -1 -1 -2 -3 -3 -2 -1 -2 -4 -5 -6 -6 -4 -4 -4 -4 -4 -4 -6 -6 -6 -6 -6 -6 -6 -5 -7 -8 -10 -14 -17
-4 -4 -4 -4 -3 -3 -2 -1 -1 -1 -1 -1 -1 -3 -4 -4 -4 -3 -4 -2 -1 -3 -3 -5 -4 -3 -4 -4 -4 -4 -5 -5 -6 -8 -7 -7 -6 -5 -7 -11 -13 -16 -20
-4 -4 -3 -2 -2 -1 -1 -1 -1 -1 -2 -2 -2 -4 -4 -5 -4 -4 -4 -4 -5 -4 -4 -4 -1 -3 -1 -2 -3 -4 -6 -9 -9 -8 -9 -7 -5 -4 -7 -12 -14 -17 -20
-1 -1 -0 -1 -1 -1 -1 -1 -2 -3 -4 -5 -7 -8 -9 -9 -7 -6 -6 -6 -6 -4 -3 -1 -2 -2 -3 -5 -8 -8 -7 -9 -10 -8 -7 -3 -3 -4 -9 -14 -15 -16 -18

GFSSE_850_dewp_003.txt.gz
Dewpoint
6 10 12 12 12 13 13 13 12 12 11 11 11 11 11 11 12 12 12 12 11 10 9 9 8 8 7 7 8 8 7 6 7 8 6 3 2 -0 6 8 8 8 9
5 11 12 12 12 12 13 13 12 12 12 12 11 10 10 9 11 11 11 10 10 9 7 6 7 8 8 6 7 8 8 8 5 4 4 2 1 0 0 6 6 8 8
4 8 10 11 11 11 12 13 13 11 11 11 10 9 10 9 9 10 12 11 8 6 6 6 8 8 8 7 7 7 7 9 7 7 7 7 5 -0 -1 4 7 6 7
2 4 6 5 7 8 8 6 6 9 10 8 4 4 7 9 9 9 8 7 6 6 7 8 7 6 6 9 8 8 8 9 9 9 9 7 6 3 -0 -0 5 6 7
-0 0 0 1 0 -1 -4 -4 -2 1 5 7 3 4 3 4 8 10 11 11 9 6 5 6 6 6 8 8 8 10 11 11 10 10 10 9 7 7 7 6 3 5 5
-0 -2 -3 -4 -4 -3 -1 -1 -0 0 2 3 3 2 1 3 5 7 6 2 -1 0 3 6 9 8 7 6 7 7 8 8 10 10 9 10 9 8 7 7 9 6 8
-2 -5 -4 -4 -3 -3 -3 -2 -1 -1 1 1 0 0 1 2 3 2 2 3 5 6 6 6 6 6 4 1 2 7 8 8 9 10 10 10 10 10 9 8 7 9 8
-4 -4 -2 -2 -3 -4 -4 -2 -1 1 1 1 1 1 0 2 3 2 1 -1 -5 -4 -3 1 3 3 2 2 3 4 6 8 9 8 8 8 9 10 10 10 9 8 8
1 1 1 -1 -2 -2 -2 -1 1 3 2 2 2 1 0 -0 1 1 -0 -5 -11 -9 -7 -5 -3 -2 -2 0 4 6 7 8 8 8 8 9 8 8 10 10 9 9 9
6 4 3 2 -0 -3 -3 -3 -3 -2 2 3 3 2 -1 -2 -0 0 -4 -7 -11 -8 -6 -6 -8 -9 -8 -5 -1 4 7 9 9 9 9 8 7 8 7 8 9 9 9
7 6 7 5 -1 -4 -5 -7 -11 -11 -5 -3 0 2 0 -2 -2 -2 -10 -11 -10 -8 -7 -7 -7 -11 -12 -9 -5 0 6 8 9 9 8 8 7 6 5 8 8 9 8
7 7 7 5 -1 -4 -5 -7 -10 -11 -6 -2 1 1 2 0 -3 -5 -9 -10 -8 -6 -6 -9 -8 -8 -13 -7 -6 -2 4 6 7 6 6 5 6 6 5 5 5 7 8
7 7 8 7 -1 -4 -4 -4 -5 -7 -5 -2 0 2 1 -1 -4 -5 -8 -6 -6 -6 -5 -5 -6 -6 -9 -6 -4 -4 -6 -7 -8 -10 -7 0 4 5 5 5 5 7 9
7 8 9 6 -4 -5 -4 -4 -3 -2 -1 1 1 1 3 3 3 1 1 -1 -8 -9 -6 -5 -5 -4 -5 -7 -9 -9 -9 -10 -12 -12 -8 -6 -2 3 6 7 6 8 9
7 8 9 5 -4 -5 -5 -4 -3 -2 -2 -1 -1 1 2 2 1 0 -3 -6 -7 -7 -6 -5 -4 -4 -6 -8 -11 -11 -11 -10 -10 -10 -11 -12 -11 -7 1 6 8 8 7
5 8 9 1 -5 -6 -6 -5 -5 -4 -4 -4 -3 -3 -2 -0 -1 -2 -3 -5 -6 -7 -6 -5 -5 -5 -7 -9 -11 -10 -8 -7 -7 -7 -7 -7 -7 -7 -8 -3 4 7 7
4 6 7 -3 -6 -6 -5 -5 -5 -5 -5 -4 -4 -4 -5 -5 -5 -5 -6 -6 -7 -7 -6 -5 -7 -8 -9 -10 -10 -8 -7 -6 -7 -7 -6 -6 -7 -7 -8 -7 -7 -3 4
4 5 5 -6 -7 -6 -4 -4 -5 -5 -5 -4 -5 -5 -4 -4 -5 -5 -6 -6 -6 -7 -6 -6 -6 -8 -8 -9 -8 -6 -6 -6 -7 -6 -7 -7 -8 -9 -9 -8 -7 -6 -4
1 4 -1 -6 -7 -4 -3 -3 -3 -3 -2 -3 -3 -3 -3 -4 -4 -4 -4 -4 -5 -6 -6 -5 -6 -6 -7 -7 -6 -6 -6 -7 -7 -7 -7 -7 -8 -8 -8 -9 -8 -6 -5
1 4 -2 -6 -6 -3 -2 -2 -3 -2 -3 -3 -3 -3 -3 -3 -3 -3 -2 -3 -3 -4 -5 -5 -6 -6 -6 -6 -6 -6 -7 -7 -7 -7 -8 -7 -7 -8 -8 -9 -9 -9 -8
2 1 -4 -5 -3 -2 -3 -3 -3 -3 -3 -3 -3 -2 -2 -2 -2 -2 -3 -3 -2 -3 -3 -5 -5 -4 -6 -6 -5 -5 -6 -6 -7 -7 -8 -7 -7 -7 -7 -7 -8 -8 -9
-3 -3 -4 -4 -4 -3 -4 -4 -3 -3 -3 -3 -2 -2 -2 -2 -2 -3 -4 -4 -3 -2 -1 -3 -4 -3 -3 -5 -5 -3 -3 -4 -5 -6 -7 -6 -6 -6 -6 -6 -5 -7 -8
-4 -4 -3 -3 -4 -4 -3 -2 -1 -2 -2 -2 -2 -2 -2 -3 -4 -5 -5 -5 -5 -5 -4 -2 -2 -4 -1 -2 -4 -4 -3 -3 -4 -5 -6 -6 -6 -6 -6 -6 -5 -6 -10
-4 -3 -3 -3 -2 -1 -1 -1 -1 -1 -1 -2 -3 -5 -7 -9 -11 -12 -12 -10 -7 -6 -6 -5 -5 -3 -3 -0 -1 -3 -3 -4 -3 -4 -5 -6 -7 -7 -6 -6 -4 -5 -10
-3 -2 -1 -1 -1 -1 -1 -1 -2 -2 -3 -5 -7 -10 -12 -16 -18 -17 -15 -11 -9 -7 -7 -7 -7 -4 -2 -1 0 -1 -2 -2 -3 -6 -6 -5 -7 -8 -6 -4 -5 -7 -9
-0 -0 -1 -1 -1 -2 -3 -4 -4 -4 -6 -8 -11 -14 -16 -17 -17 -15 -10 -7 -6 -6 -6 -5 -4 -2 -0 -0 -1 -2 -2 -4 -5 -5 -5 -5 -4 -4 -4 -4 -6 -7 -9

GFSSE_850_dewp_006.txt.gz
Dewpoint
12 14 12 13 13 13 13 13 12 11 11 11 11 12 12 12 12 12 12 12 11 10 9 8 7 7 7 6 6 8 9 8 9 9 7 4 2 2 7 9 9 12 10
12 14 12 12 12 13 12 12 12 12 12 11 11 11 12 12 12 12 12 11 10 10 9 7 6 6 8 8 7 7 8 8 7 5 4 3 2 2 1 4 8 12 10
12 13 11 10 10 10 11 12 12 12 12 11 10 10 11 10 11 11 11 11 10 8 6 6 6 7 7 8 8 7 7 8 8 7 7 10 11 7 -1 3 7 8 9
10 13 13 9 10 11 12 12 12 11 12 11 10 10 10 10 10 10 10 9 7 7 8 9 7 6 6 7 9 8 8 8 9 9 10 11 11 6 1 1 5 7 8
8 9 6 7 7 5 5 7 10 10 10 9 7 8 9 9 9 9 9 9 8 6 4 2 5 7 6 8 8 8 9 10 10 10 12 12 11 10 6 6 5 6 7
8 9 -1 -2 -2 -3 -2 -2 -1 3 4 4 4 3 3 3 2 2 2 1 0 1 2 2 6 8 9 8 6 7 7 8 9 11 12 12 11 11 7 7 8 8 6
6 -3 -5 -4 -3 -3 -3 -2 -1 0 1 2 2 1 1 2 3 3 2 1 -1 -1 1 1 3 4 3 2 2 1 6 8 9 11 11 12 12 10 9 8 8 7 9
-1 -4 -3 -3 -3 -3 -3 -2 -1 1 1 1 1 1 0 0 1 2 1 -2 -11 -11 -8 -6 -2 -1 -0 -1 2 3 5 7 10 12 11 11 9 9 10 10 10 8 8
2 3 2 0 -2 -3 -3 -3 -1 2 2 2 2 1 1 -0 0 1 0 -2 -9 -8 -6 -5 -5 -6 -8 -8 -7 -3 1 6 11 11 11 11 10 8 8 9 10 9 9
7 8 4 2 -3 -3 -3 -6 -4 -2 1 2 3 3 1 -0 -0 0 -1 -7 -9 -8 -8 -7 -7 -7 -9 -10 -8 -2 3 6 10 11 11 11 8 8 8 8 7 7 8
9 5 5 4 -2 -3 -4 -7 -7 -8 -4 -2 -1 1 2 5 0 -1 -5 -8 -10 -8 -6 -6 -7 -8 -7 -9 -8 -5 1 8 9 8 9 9 8 7 6 6 8 9 7
10 8 6 5 -0 -3 -4 -3 -4 -6 6 3 4 1 2 -0 -0 -2 -3 -6 -6 -4 -8 -8 -7 -6 -2 4 4 0 5 3 6 7 7 6 5 5 6 6 6 6 8
9 10 8 7 -0 -3 -1 5 8 8 7 8 0 2 6 2 8 8 9 8 6 2 5 3 1 5 -2 -4 4 -3 -1 -2 3 4 5 -9 -6 0 4 6 6 6 7
8 10 11 8 -1 -4 5 7 7 8 8 8 9 2 9 9 9 9 8 7 6 6 3 6 6 -3 -5 -5 -7 -10 -11 -7 -0 1 2 -12 -13 -11 -5 3 7 7 6
8 10 12 10 -3 -4 -5 7 5 4 8 6 8 9 7 8 8 7 6 5 5 6 6 6 6 4 -4 -4 -6 -8 -6 -6 -7 -1 -0 -6 -7 -7 -9 -10 -3 6 8
8 10 12 9 -4 -5 0 -4 1 -4 2 5 5 4 -4 -0 6 5 4 4 3 4 4 5 4 -0 -1 -4 -2 -6 -6 -2 -1 -4 -2 -2 -6 -7 -7 -7 -7 -6 3
7 9 11 8 -5 -6 -5 -5 -5 0 -4 4 3 -4 -4 -4 0 -2 3 3 3 3 3 5 4 -0 -3 -2 -4 -5 -6 -4 -1 -5 -4 -2 -2 -6 -7 -7 -7 -7 -7
8 9 10 3 -5 -7 -4 -2 1 3 -1 3 -0 -3 -3 -3 -4 -3 3 3 3 2 4 4 4 3 2 -0 -2 -2 -2 -2 -2 -3 -2 -4 -2 -3 -3 -7 -9 -8 -7
6 7 9 0 1 -1 -3 1 -3 -2 -0 1 -2 -0 -2 -3 -3 -3 -2 0 1 2 1 3 4 3 2 -0 -1 -2 -1 -2 -2 -3 -3 -1 -2 -4 -4 -6 -9 -9 -9
1 6 8 2 -0 -5 -1 -2 -2 -3 -2 -3 -3 -3 -2 -2 -2 -2 -2 -2 1 5 4 3 3 3 2 1 -2 -3 -2 -1 -1 -2 -2 -2 -3 -1 -2 -2 -2 -1 -9
1 7 5 4 -5 -4 -1 -1 -1 -1 -0 0 -0 -2 -2 -2 -2 -2 -3 -3 -4 1 2 -1 3 4 4 3 2 -1 -1 -1 0 -1 -2 -3 -3 -2 -1 -0 -4 -4 -4
4 4 2 -1 -3 -3 -2 -3 -2 -2 0 -1 -1 -2 -2 -3 -5 -9 -10 -7 -2 -0 1 2 3 3 4 4 2 1 -1 -2 -2 -0 -1 -2 -2 -2 -1 -0 -3 -5 -6
-2 -1 -1 -2 -3 -3 -1 0 0 -0 -0 -0 -1 -3 -5 -6 -11 -15 -16 -16 -15 -8 -2 -0 1 2 1 2 3 2 0 -1 -2 -3 -0 -1 -2 -1 -2 -2 -4 -4 -5
-3 -3 -3 -2 -1 -1 -2 -2 -2 -0 -1 -3 -2 -2 -5 -9 -17 -20 -20 -21 -20 -13 -3 -1 -2 0 1 1 1 2 2 1 0 -1 -2 -0 -1 -1 -1 -3 -4 -3 -4
1 -0 -0 1 -0 -1 -2 -1 -1 -1 -0 -0 -1 -2 -5 -6 -9 -15 -18 -18 -13 -8 -3 -6 -4 0 1 1 1 1 2 2 1 1 -1 -1 -1 -2 -3 -3 -2 -3 -3
2 -0 -0 0 1 -1 -1 -2 -4 -1 1 -1 -3 -4 -5 -5 -5 -4 -9 -11 -6 -4 -2 -2 -1 -1 0 1 1 1 1 0 -0 -1 -1 -2 -2 -2 -3 -3 -3 -3 -3

GFSSE_850_dewp_009.txt.gz
Dewpoint
12 13 12 12 12 12 12 12 12 12 11 11 12 12 12 12 12 12 12 12 11 11 10 9 8 7 6 6 6 6 7 8 7 8 9 7 5 2 3 8 11 11 11
12 14 12 12 12 12 12 12 12 12 12 12 12 12 13 13 13 12 12 12 11 10 9 8 7 6 6 6 7 7 5 7 7 7 6 4 8 5 3 6 10 12 10
13 13 12 11 11 12 13 13 13 13 12 11 11 11 10 10 10 10 10 11 11 10 8 7 7 7 6 5 6 8 7 7 8 7 7 8 11 12 7 4 7 9 9
13 13 13 10 10 11 12 13 12 12 12 11 10 9 9 9 9 9 9 9 9 10 8 4 3 4 5 6 7 8 8 8 8 8 8 10 11 11 6 1 3 7 8
12 13 9 9 9 8 8 8 9 10 10 9 8 7 7 4 2 2 4 4 3 1 0 1 3 6 8 8 6 8 8 10 9 8 9 11 11 11 8 5 4 5 6
9 9 1 -0 -1 -2 -1 1 3 6 7 6 3 3 2 2 1 2 2 2 2 1 2 3 4 4 4 4 4 4 7 8 10 11 11 12 10 11 9 7 8 9 5
5 4 -6 -6 -4 -3 -2 -1 1 2 2 2 2 2 1 1 1 2 1 -0 -8 -11 -9 -7 -5 -3 -2 -2 -0 3 2 1 7 11 10 11 12 10 10 8 6 5 4
5 7 -4 -3 -4 -4 -3 -1 0 2 2 3 2 2 1 1 1 1 1 -1 -9 -11 -8 -7 -6 -6 -8 -10 -9 -7 -1 4 6 10 11 11 11 10 9 10 9 7 6
5 7 7 5 -3 -4 -5 -5 -3 1 2 2 3 2 2 0 -0 1 0 -5 -9 -10 -9 -7 -7 -8 -8 -8 -12 -9 -5 1 5 10 10 11 11 10 9 8 9 10 10
6 8 8 8 8 8 6 -12 -11 -7 -0 3 4 4 3 2 4 1 0 -4 -9 -9 -6 -6 -7 -7 -7 -7 -8 -9 -7 4 9 8 8 10 10 9 8 8 8 8 10
7 8 9 8 8 7 7 -2 1 -1 -0 4 5 4 6 9 9 9 7 -0 -5 -5 -3 -6 -7 -6 -4 1 3 1 -4 7 7 6 7 8 7 8 7 7 7 7 7
8 8 9 10 9 7 5 8 8 7 8 9 10 10 9 10 9 8 8 6 6 5 2 5 4 3 6 5 4 5 5 6 4 4 5 6 3 -0 5 5 6 6 5
7 7 8 11 9 8 7 7 7 7 7 8 10 10 9 9 9 9 8 8 7 7 6 6 6 6 7 4 4 4 4 4 2 2 3 3 -6 -12 -7 -2 2 5 5
6 6 8 11 7 5 7 7 7 7 7 7 8 9 9 8 8 8 7 6 5 5 6 6 6 6 6 3 1 -0 1 -1 -1 -0 0 -0 -7 -10 -12 -13 -7 2 5
5 5 7 10 8 7 7 8 8 8 7 5 7 7 7 7 7 6 6 5 4 4 4 4 5 5 4 2 1 1 1 0 1 0 -0 -0 -4 -7 -7 -7 -8 -8 -2
4 6 7 9 9 6 7 7 7 6 5 5 4 2 -1 6 6 6 5 4 3 3 3 4 5 5 4 2 1 0 1 -0 -1 0 -1 -1 -2 -5 -7 -7 -8 -8 -8
4 5 8 9 8 6 6 6 4 3 3 4 4 4 3 1 3 4 5 5 4 3 4 4 4 4 4 4 2 -0 1 1 1 1 0 -2 -1 -2 -5 -7 -7 -7 -7
4 5 7 8 6 5 5 4 4 4 4 4 3 3 4 5 4 2 4 4 4 4 4 4 3 4 4 3 2 1 -0 -1 -0 -0 0 -0 -2 -1 -1 -2 -7 -8 -8
4 4 6 9 3 3 5 4 4 4 3 1 1 1 2 -0 1 -2 -1 1 2 4 4 4 4 3 3 3 2 1 -0 -0 -0 -1 -1 -1 -0 -2 -2 -1 -3 -8 -9
4 5 6 8 2 4 4 5 2 2 2 1 1 2 2 2 1 -0 1 2 2 3 2 2 3 3 4 3 3 2 1 -1 -1 -1 -0 -1 -1 0 -1 -1 -2 -4 -4
7 6 6 5 4 3 2 1 0 0 1 1 1 2 2 1 -3 -4 -1 -1 -1 -1 -1 -4 -1 1 2 2 3 4 3 2 1 -1 -0 -0 -1 -1 -1 0 0 -1 -2
6 6 4 3 2 1 1 2 1 1 2 2 1 1 0 0 -1 -1 -3 -3 -3 -2 -3 -3 -2 -0 1 1 2 3 3 2 1 1 -0 0 -1 -1 -2 -1 1 -0 -2
3 3 2 2 2 2 1 1 1 1 0 0 1 1 1 1 -1 -2 -2 -1 -1 -1 -1 -2 -1 -1 0 0 0 1 2 1 1 -0 0 1 0 -1 -1 -2 -0 -0 -2
4 3 3 2 2 2 -1 2 2 2 1 2 1 1 0 -2 -3 -3 -3 -1 0 -1 -1 -1 -2 -1 -0 -0 -0 -1 -1 1 2 2 1 1 1 0 -0 -1 -1 -1 -2
4 4 3 2 2 2 2 2 2 3 3 2 1 -0 -2 -3 -3 -3 -3 -2 -2 -1 -0 0 0 1 1 -0 -0 0 1 1 1 2 3 3 1 2 1 1 0 -2 -2
4 3 3 2 1 2 3 3 3 2 1 0 -0 -1 -2 -2 -3 -4 -3 -1 -0 -0 0 -0 -0 0 0 0 1 1 0 0 1 0 0 1 2 1 2 1 2 -0 -1

GFSSE_850_dewp_012.txt.gz
Dewpoint
13 12 10 12 12 12 12 12 12 11 12 12 12 12 12 12 12 12 12 12 11 11 10 9 9 8 7 6 6 6 6 7 7 7 6 4 5 4 5 7 12 11 10
13 12 11 12 12 13 12 12 12 11 11 12 11 12 12 11 11 11 11 11 11 10 10 9 8 7 7 6 4 3 6 7 7 6 6 5 7 10 5 4 8 11 6
12 11 11 12 12 12 12 12 12 12 12 11 11 10 9 8 8 8 9 9 9 9 9 7 3 0 -2 -2 1 4 5 7 7 7 7 7 9 11 8 4 4 6 7
14 13 10 10 10 11 12 12 11 11 11 10 8 6 6 4 2 2 3 4 4 2 0 0 1 1 2 4 6 6 6 7 7 7 7 7 11 12 10 6 2 5 6
14 12 9 10 10 9 8 8 10 10 9 9 7 3 2 1 2 2 2 2 1 1 0 -1 -1 1 2 2 4 6 6 6 7 8 7 8 11 11 7 6 3 5 6
9 6 2 -2 -4 -3 -3 0 3 3 3 3 3 2 1 1 2 2 2 1 -5 -11 -10 -9 -7 -6 -5 -4 -3 -0 1 2 6 6 8 11 11 10 7 8 6 7 8
-3 -7 -7 -5 -4 -3 -3 -2 -1 0 1 2 2 1 1 1 1 1 1 -1 -8 -11 -9 -8 -8 -8 -8 -11 -12 -12 -8 -0 1 4 10 11 9 5 9 9 7 7 7
2 -4 -4 -4 -5 -6 -6 -4 -2 0 2 2 1 2 2 0 -1 -1 0 -3 -7 -10 -9 -8 -8 -9 -9 -9 -9 -12 -10 -9 -3 8 10 10 10 10 10 10 9 8 6
6 -0 -3 -4 -5 -5 -9 -9 -6 -2 1 1 2 3 1 0 2 -1 -1 -3 -9 -10 -8 -7 -8 -9 -9 -9 -9 -9 -11 -10 -3 7 8 7 10 9 9 9 8 9 10
7 8 8 8 7 8 6 -16 -13 -9 -4 -2 2 1 8 10 9 9 6 3 -1 -4 -3 -2 -2 -3 -4 -3 2 1 -3 1 8 7 7 8 7 7 7 8 8 8 8
7 8 8 8 7 7 6 6 6 6 9 9 10 7 11 10 9 8 7 8 7 6 4 4 4 3 5 5 4 4 2 6 7 4 6 7 7 7 5 6 7 7 7
8 8 8 9 8 4 6 8 8 8 8 9 9 9 10 9 10 8 9 8 7 6 6 7 6 6 7 6 4 4 4 5 4 -0 3 3 3 2 -12 -10 2 4 5
7 7 9 9 7 8 5 7 7 7 7 8 10 8 9 8 8 8 8 7 6 5 5 5 6 6 6 5 0 -1 -0 0 1 2 2 2 2 0 -11 -12 -11 -4 1
7 7 9 9 4 2 8 8 7 7 6 8 7 9 7 7 7 4 6 3 4 4 4 4 4 5 5 5 2 1 -1 -1 -3 -1 -0 -1 -1 -2 -8 -9 -9 -11 -9
6 6 7 7 6 7 3 8 6 7 8 6 7 6 -5 1 2 3 4 4 4 3 3 3 3 4 4 3 2 1 0 0 0 -1 -2 -0 0 -2 -6 -8 -8 -8 -8
5 6 8 10 7 6 7 7 7 5 4 5 4 3 -3 -4 -2 -1 -2 0 3 4 3 2 4 4 4 5 4 3 1 -0 -1 -1 -0 1 -1 -1 -4 -6 -8 -8 -8
3 5 7 9 9 6 6 5 5 4 3 4 4 4 4 0 -2 -3 -3 -1 1 2 1 0 3 4 3 3 4 3 3 1 0 -0 -1 -0 -0 -2 -2 -3 -5 -8 -8
5 4 10 10 9 7 5 5 4 4 4 4 4 3 3 3 -2 -2 -2 -2 -0 -1 -1 -1 1 3 4 4 3 3 3 2 1 -0 -0 -0 -0 -1 -1 -1 -2 -4 -7
4 5 6 8 8 5 4 4 5 4 3 2 1 1 2 2 2 0 -2 -3 -3 -3 -3 -2 1 3 4 4 3 3 2 2 3 1 -0 -0 -1 -1 -0 -1 -1 -1 -4
3 4 5 8 6 3 5 5 4 2 2 2 2 2 2 2 3 -1 -2 -2 -1 -1 -3 -1 0 -2 -3 -1 2 3 3 3 2 0 1 -0 -0 -1 -1 -1 -0 -1 -2
5 5 7 7 4 4 4 3 1 1 1 2 2 2 1 1 0 -0 -1 -1 -2 -2 -1 -2 -4 -4 -3 -3 1 2 2 2 2 4 3 2 0 -0 -1 -1 -1 -1 -1
6 6 4 4 3 1 1 2 1 1 1 1 2 1 1 1 1 0 -2 -3 -2 -2 -3 -5 -3 -3 -5 -3 -1 0 1 1 0 1 2 2 2 1 0 -0 -1 -1 0
4 3 3 3 3 1 1 2 2 1 1 1 1 1 1 2 2 -2 -3 -3 -3 -3 -4 -10 -3 -1 0 0 0 0 1 0 1 1 1 1 1 2 3 2 2 -1 -1
3 3 3 2 2 1 -0 -0 1 2 2 3 3 3 2 0 -2 -2 -3 -3 -3 -3 -3 -1 0 -0 -1 -0 1 1 1 2 2 2 1 1 1 2 3 4 3 1 -0
4 4 3 2 2 3 3 3 3 3 3 1 1 0 -0 -1 -2 -3 -4 -4 -5 -4 -3 0 0 -0 1 1 1 0 -2 -3 -3 -1 -0 -1 -1 0 1 2 3 3 3
4 4 3 2 2 2 2 3 2 1 1 1 1 0 -1 -1 -4 -5 -5 -4 -3 -0 -0 -0 -0 -0 -0 -1 -2 -2 -1 -2 -1 -1 -1 -3 -1 -3 -3 1 2 3 3

GFSSE_850_dewp_015.txt.gz
Dewpoint
12 11 10 10 11 12 11 11 11 11 11 11 11 11 11 11 10 10 10 10 10 10 9 9 9 8 7 7 6 4 3 4 7 8 8 7 6 6 6 7 11 8 8
12 11 10 11 11 11 11 11 11 11 11 11 11 10 9 7 6 5 4 4 6 7 7 7 6 4 1 -2 -2 -1 4 6 7 7 7 7 8 11 10 7 11 10 6
12 12 11 12 12 11 12 12 11 10 10 10 8 5 4 1 -1 -1 -0 1 1 0 -1 -1 -2 -2 -1 -1 0 4 5 6 7 7 7 7 9 10 10 8 7 10 9
11 11 11 11 11 12 12 9 7 8 8 7 5 2 0 -0 -0 0 0 0 -0 -2 -5 -8 -9 -7 -4 -1 0 2 5 6 6 8 8 8 10 11 10 8 7 7 8
12 10 10 10 11 8 5 4 5 5 5 3 1 0 -0 -0 -0 -1 -1 -1 -7 -14 -13 -11 -10 -10 -9 -8 -8 -6 -1 1 5 7 9 7 8 10 10 8 6 6 9
11 9 7 1 -3 -4 -4 -2 -1 -0 -0 0 0 0 0 -0 -2 -2 -1 -2 -11 -12 -10 -10 -10 -10 -10 -10 -12 -13 -11 -3 1 2 8 8 10 9 7 6 7 6 7
-1 -6 -6 -5 -4 -4 -3 -3 -2 -1 0 0 0 1 0 -1 -4 -1 -0 -3 -8 -10 -10 -9 -10 -11 -10 -11 -10 -11 -11 -10 -3 9 9 9 9 8 5 4 7 8 8
-6 -4 -4 -5 -5 -6 -6 -5 -5 -3 -1 -1 -0 1 -1 -2 -1 -0 -1 -5 -8 -9 -8 -8 -7 -7 -8 -8 -8 -7 -10 -8 4 9 6 9 7 8 9 9 9 9 8
-3 -4 -5 -5 -4 -9 -16 -14 -12 -7 -6 -4 -1 -2 6 7 7 7 3 3 1 1 -0 -2 -1 -0 -2 -2 0 0 -1 6 8 9 7 8 8 7 8 8 9 9 10
5 6 7 4 7 5 -6 -12 -11 -8 -4 5 5 9 9 8 7 7 9 8 7 4 4 5 3 4 4 4 2 2 2 7 8 6 7 7 7 8 6 6 5 7 8
8 8 8 7 5 6 6 6 5 5 4 4 7 9 9 8 8 8 9 8 7 5 5 4 3 5 5 5 3 -1 1 5 5 6 3 4 6 6 6 4 -1 5 6
8 8 8 6 4 6 6 8 8 8 8 9 8 7 9 8 9 8 8 7 6 5 4 3 3 4 5 5 3 -1 -4 -2 2 4 3 2 4 3 3 -1 -12 -5 3
7 8 7 1 6 7 5 8 8 8 7 9 10 7 6 8 8 7 4 1 0 2 3 4 4 3 4 4 3 1 -0 -4 -5 -0 1 1 1 1 1 -1 -11 -11 -5
8 8 8 3 0 7 8 7 8 7 7 9 7 5 -2 2 1 -2 -1 -0 1 3 3 3 2 1 3 3 3 3 1 -1 -2 -4 -1 -0 -0 -1 -3 -3 -7 -9 -10
7 8 9 5 -5 1 8 7 7 7 8 5 5 3 -5 -4 -2 -3 -3 -2 -1 0 2 1 1 -0 2 3 4 4 4 3 2 0 -1 -3 -2 -0 -1 -3 -5 -8 -8
7 7 8 7 5 -4 2 4 2 3 4 4 4 2 0 -3 -3 -3 -3 -3 -2 -1 1 1 1 -0 3 4 3 4 4 4 3 2 1 -1 -2 -3 -2 -2 -4 -5 -7
6 7 9 8 8 6 1 0 2 5 3 4 4 4 3 2 2 1 0 -0 -0 -1 -1 -2 -3 -2 1 1 4 3 3 4 3 3 3 1 -0 -1 -1 -3 -4 -4 -4
5 7 9 6 5 6 7 3 3 4 4 4 5 3 4 4 3 2 1 -2 -2 -2 -2 -2 -2 -1 1 3 4 4 4 2 2 3 4 3 0 -0 -0 -1 -2 -2 -3
5 5 8 8 7 7 6 5 4 4 3 3 2 2 3 2 2 1 1 -1 1 -1 -2 -2 -3 -2 0 -1 -5 -10 -10 -4 1 -4 -4 1 1 1 0 -0 -1 -1 -1
5 5 8 8 7 5 5 5 4 4 2 3 2 2 2 2 1 1 0 1 1 -1 -2 -4 -5 -5 -7 -8 -7 -9 -11 -11 -5 -2 -0 0 4 3 2 1 -0 -1 -1
7 9 9 7 5 5 5 5 4 2 1 2 2 2 2 1 1 1 1 0 -2 -2 -3 -3 -5 -7 -14 -13 -8 -7 -8 -9 -9 -8 -9 -4 1 3 3 3 1 0 -1
6 6 6 5 4 2 2 2 2 1 1 1 1 1 1 2 2 2 1 -2 -3 -3 -4 -5 -4 -7 -4 -2 0 0 -0 -4 -5 -6 -5 -1 1 1 1 3 3 3 1
4 4 4 3 3 2 1 1 1 0 -0 1 1 2 3 2 1 -1 -2 -2 -3 -5 -3 -4 -7 -3 0 0 -0 -1 0 0 0 -2 -3 -1 -0 1 1 2 3 5 4
3 2 2 1 0 1 0 -0 1 2 2 3 3 2 0 -1 -1 -1 -2 -3 -7 -7 -7 -8 -1 1 0 -0 0 1 1 -0 -2 -2 -3 -4 -4 -3 -1 -0 1 2 5
2 2 1 2 2 2 2 2 3 3 1 1 1 1 1 0 -0 -1 -4 -9 -8 -3 -1 -0 -0 -0 -1 -1 -1 -1 -2 -1 -3 -2 -3 -3 -5 -6 -8 -7 -6 -4 1
2 2 2 2 3 2 2 2 2 1 2 2 2 2 1 -0 -2 -6 -6 -5 -3 -1 -1 -1 -1 -3 -3 -3 -2 -3 -3 -2 -1 -1 -2 -3 -3 -6 -7 -7 -6 -5 -3

GFSSE_850_dewp_021.txt.gz
Dewpoint
13 13 12 11 11 10 10 9 9 9 9 9 8 5 0 -2 -4 -4 -4 -4 -3 -3 -3 -2 -2 -2 -2 -3 -3 -2 -1 0 3 5 6 7 6 6 7 7 7 9 7
12 13 12 11 11 9 9 9 9 9 8 7 2 -2 -4 -4 -4 -4 -4 -4 -4 -4 -5 -6 -7 -5 -4 -2 -1 1 3 4 5 7 8 7 7 7 10 8 5 7 7
12 12 11 10 10 9 10 9 8 7 4 1 -2 -4 -3 -3 -4 -7 -7 -6 -11 -14 -14 -13 -11 -10 -10 -11 -9 -2 1 5 6 7 7 7 7 8 9 8 5 7 9
11 11 11 10 10 10 10 7 5 2 -1 -2 -3 -3 -4 -4 -8 -11 -7 -10 -16 -15 -14 -13 -13 -12 -11 -11 -12 -12 -5 1 5 7 7 7 8 9 9 9 8 6 6
12 12 11 11 11 10 6 5 1 0 -1 -2 -3 -3 -4 -5 -13 -9 -7 -9 -12 -13 -12 -11 -11 -11 -11 -11 -11 -11 -10 -5 1 6 8 8 7 8 8 7 8 7 3
12 12 11 11 10 4 2 1 -1 -2 -2 -3 -4 -5 -4 -10 -9 -6 -6 -9 -9 -9 -9 -8 -7 -6 -7 -7 -7 -9 -9 -6 0 3 7 8 9 9 7 4 5 8 4
12 11 11 7 -1 -2 -3 -3 -3 -3 -5 -6 -5 -4 -9 -8 -6 -4 -2 -1 -1 -1 -0 -0 -1 -1 -2 -0 2 -1 -5 -2 5 8 9 9 7 6 7 6 6 7 5
10 9 1 -3 -4 -4 -5 -5 -6 -7 -10 -8 -6 -6 1 1 2 2 2 -0 -2 -1 -2 -3 -1 1 3 2 -0 1 2 5 8 7 7 6 6 6 6 9 9 8 8
-1 -4 -4 -6 -9 -12 -12 -12 -11 -13 -11 -9 -3 2 1 3 2 1 1 -1 -2 -0 -2 -3 -3 -3 -2 -1 -3 -4 1 6 7 7 6 8 9 8 8 6 6 6 7
-4 -5 -6 -9 -17 -19 -18 -16 -13 -9 -5 -1 1 3 3 5 4 1 0 1 1 1 0 -1 -2 -2 -3 -3 -3 -3 -4 -2 4 5 5 4 5 7 7 6 4 2 -3
1 1 -0 -1 1 -3 -3 -0 -0 1 1 2 3 4 5 5 3 2 1 0 -0 0 0 -1 0 0 -1 -1 -2 -3 -3 -2 -4 -5 -3 2 2 4 5 4 3 2 1
4 4 -0 1 3 4 5 5 5 4 3 6 5 0 1 4 4 1 1 -1 0 2 2 2 3 3 2 0 2 2 -1 -3 -2 -1 -4 -4 1 1 2 1 1 -0 -2
5 6 4 2 6 7 7 5 4 2 4 4 4 -1 -1 1 1 0 -2 -1 1 2 2 3 3 4 3 0 2 4 4 3 1 -1 -1 -1 -1 -3 -3 -3 -1 -1 -2
6 6 6 -1 4 6 7 5 6 6 5 2 4 1 -4 -3 -3 -2 -1 -0 2 2 3 3 1 1 -0 -2 -1 1 3 4 4 4 4 4 0 2 2 1 -2 -3 -3
6 7 7 2 4 2 6 5 4 5 6 5 3 1 -2 -3 -1 -1 -1 -1 0 1 0 -1 -1 -2 -1 -1 -2 -2 -0 2 4 4 4 4 4 3 3 2 2 0 -1
7 8 8 3 5 5 6 7 7 7 7 4 4 3 3 3 0 -0 0 0 0 -2 -2 -2 -1 -0 0 -0 -1 -2 -3 0 4 4 4 4 4 4 4 3 1 1 0
7 8 8 5 7 7 8 8 7 7 5 3 3 4 4 4 3 4 3 2 1 -1 -1 1 1 1 1 -1 -3 -5 -6 -7 -8 -10 -11 -9 -5 -3 -1 3 3 2 0
7 8 9 7 6 7 8 8 6 5 3 4 5 4 4 5 5 4 3 3 2 1 1 1 1 1 -2 -5 -8 -10 -11 -12 -14 -14 -13 -12 -8 -4 -3 -0 1 2 1
7 9 9 5 8 8 8 6 6 5 4 4 5 5 5 5 4 3 2 1 1 2 1 -1 -3 -3 -3 -7 -8 -8 -8 -9 -10 -10 -10 -9 -7 -5 -5 -5 -2 1 3
5 9 9 9 9 8 8 7 6 5 4 4 4 4 4 3 2 1 1 2 0 -2 -3 -3 -3 -3 -4 -7 -10 -13 -13 -15 -14 -6 -2 -1 -2 -4 -3 -0 0 1 1
9 8 10 9 8 8 8 7 5 4 3 3 2 2 2 1 2 2 -0 -1 -1 -2 -1 -2 -3 -4 -7 -14 -11 -8 -10 -4 -6 -7 -4 -2 -4 -4 -4 -3 -2 -0 1
9 7 4 5 8 8 7 3 4 5 3 2 2 2 2 1 0 -1 1 1 -0 -0 -1 -2 -5 -14 -16 -10 -3 -2 -2 -4 -2 -4 -4 -2 -3 -4 -5 -7 -7 -7 -4
4 4 3 2 3 3 3 3 1 1 1 -0 -0 1 1 1 0 0 0 -0 -1 -4 -10 -17 -20 -17 -12 -10 -3 -3 -3 -2 -2 -3 -4 -4 -3 -4 -6 -7 -8 -8 -9
1 -0 -0 0 0 -0 -0 -0 -1 0 0 1 1 1 1 1 1 1 1 1 -7 -14 -16 -18 -16 -11 -7 -5 -4 -4 -3 -2 -2 -3 -3 -5 -7 -7 -8 -7 -7 -6 -8
1 1 1 2 2 2 2 3 2 2 2 2 1 1 1 1 1 -1 -2 -6 -10 -11 -15 -15 -8 -4 -2 -2 -2 -2 -3 -3 -3 -2 -3 -3 -3 -6 -8 -6 -5 -6 -6
2 2 2 3 3 3 3 3 2 2 2 2 2 2 -0 -2 -5 -5 -6 -6 -7 -13 -17 -13 -9 -7 -5 -5 -5 -6 -5 -4 -4 -3 -3 -3 -3 -3 -3 -3 -5 -5 -7

GFSSE_850_dewp_024.txt.gz
Dewpoint
13 13 13 12 10 11 10 9 9 9 9 8 6 1 -2 -3 -4 -3 -4 -4 -4 -4 -4 -5 -5 -5 -5 -4 -3 -3 -3 -2 0 2 3 6 7 6 6 7 7 9 8
13 13 13 12 11 10 9 9 9 8 7 2 -2 -4 -4 -4 -5 -8 -7 -9 -12 -13 -13 -12 -11 -9 -9 -8 -5 -2 0 2 3 5 5 6 7 6 7 9 7 8 7
13 13 13 12 10 9 9 8 7 6 1 -2 -3 -3 -4 -6 -10 -8 -12 -15 -15 -15 -15 -15 -14 -13 -13 -13 -13 -12 -2 2 5 6 7 7 7 7 9 9 7 6 7
13 13 12 11 10 10 9 5 4 1 -2 -3 -3 -4 -5 -11 -9 -8 -12 -14 -14 -13 -12 -12 -11 -11 -12 -12 -12 -12 -10 -1 3 6 7 7 8 9 9 10 9 8 7
12 12 12 11 10 9 6 3 -0 -3 -3 -4 -5 -5 -7 -12 -8 -8 -10 -11 -10 -10 -10 -9 -7 -7 -7 -7 -8 -10 -10 -7 1 4 7 8 8 9 9 7 6 8 8
12 12 12 11 10 7 2 -2 -3 -3 -4 -6 -5 -6 -13 -11 -8 -7 -7 -5 -3 -2 -1 -2 -2 -2 -2 -1 -0 -2 -7 -6 0 4 7 8 9 8 7 6 5 6 8
12 12 12 11 6 -2 -2 -2 -3 -5 -7 -6 -6 -10 -7 -5 -2 -1 -1 -3 -2 -3 -4 -2 1 2 2 -1 -3 -0 0 2 5 7 7 8 6 7 7 7 7 8 8
12 12 11 2 -3 -2 -3 -3 -6 -8 -8 -7 -5 -0 0 1 -1 -3 -4 -4 -4 -5 -5 -5 -4 -4 -4 -5 -5 -4 -1 5 6 7 5 4 7 8 8 7 8 8 9
11 8 -2 -3 -3 -4 -6 -8 -9 -10 -7 -3 2 2 2 1 -1 -2 -3 -2 -3 -4 -5 -4 -4 -4 -4 -5 -5 -4 -5 -3 2 5 5 5 5 6 7 7 6 5 4
3 -3 -4 -8 -14 -17 -16 -12 -12 -9 -4 1 2 2 3 1 -0 -1 -2 -1 -1 -1 -2 -1 -1 -1 -1 -1 -2 -4 -3 -3 -5 -5 -5 -2 3 3 4 4 3 3 2
-4 -6 -8 -14 -17 -16 -14 -12 -7 -2 2 2 1 2 3 1 2 2 -1 -1 -1 -0 0 1 2 2 1 -1 -1 -2 -2 -4 -3 -2 -3 -3 -2 1 1 2 2 1 1
-3 -1 -1 -1 -4 -4 -2 -2 -1 -1 1 -0 -0 1 2 2 2 1 -1 -1 -0 1 2 2 2 2 1 -1 -2 -1 -2 -3 -3 -5 -3 -1 0 1 -1 -2 -3 -2 -2
1 1 -1 1 3 3 1 -0 0 1 3 3 2 -1 0 2 2 2 -1 -1 1 1 1 1 1 -1 -2 -2 -1 -1 -2 -2 -1 -1 -3 -5 -1 -0 2 2 2 1 -2
4 4 1 3 4 6 6 4 4 3 4 4 5 2 -2 0 2 1 -1 -1 1 2 2 0 -2 -1 -1 -1 -1 -0 -1 -2 -1 1 2 2 -2 -2 -2 1 2 2 1
5 6 3 1 5 6 7 7 7 7 7 6 6 4 1 -1 1 -1 -1 0 2 2 -0 -1 -1 1 1 1 1 0 -2 -3 -2 2 3 3 3 3 0 -3 -0 1 1
6 7 7 3 6 7 8 8 8 8 8 8 6 4 4 3 3 1 1 2 2 -0 -1 -0 1 1 0 -1 -3 -4 -7 -9 -10 -10 -9 -5 -1 1 2 2 -2 -2 1
7 7 8 5 8 8 7 8 8 8 8 7 7 6 4 4 4 4 5 4 3 2 1 1 1 -2 -3 -4 -4 -5 -7 -9 -10 -11 -12 -13 -13 -13 -11 -8 -5 -3 1
7 8 8 7 8 8 8 8 8 8 6 6 7 6 5 5 5 5 4 3 2 1 0 -2 -2 -3 -3 -4 -4 -5 -5 -6 -7 -9 -10 -9 -7 -8 -10 -11 -9 -4 -2
7 8 9 8 8 9 7 7 8 6 5 6 6 5 5 5 5 3 2 2 2 -0 -1 -1 -1 -1 -2 -3 -3 -5 -10 -14 -16 -15 -8 -2 -1 -1 -2 -2 -3 -6 -6
5 8 9 9 8 9 10 9 7 6 4 4 4 4 4 4 3 2 3 1 -0 0 0 -0 -0 -1 -2 -5 -10 -19 -22 -23 -18 -9 -7 -7 -6 -4 -4 -4 -4 -4 -3
8 10 10 8 9 9 8 7 5 4 5 5 2 2 2 2 2 1 0 -0 1 1 1 0 -2 -7 -14 -21 -23 -26 -27 -10 -12 -19 -8 -6 -13 -11 -8 -9 -9 -8 -8
10 10 7 8 9 7 6 6 5 4 1 -0 -1 -0 -0 0 1 1 1 1 1 1 0 -7 -17 -21 -21 -18 -13 -13 -8 -10 -8 -7 -12 -9 -8 -11 -9 -9 -11 -11 -12
4 3 3 4 5 4 2 0 -1 -1 -1 -1 0 1 1 1 1 1 1 -0 -4 -5 -9 -13 -18 -21 -17 -16 -10 -6 -4 -4 -4 -6 -10 -10 -5 -6 -8 -10 -9 -9 -9
0 -0 -0 0 0 0 1 1 1 2 2 2 1 2 2 1 1 -1 -6 -8 -7 -7 -8 -15 -19 -17 -13 -6 -4 -2 -2 -2 -3 -4 -4 -4 -5 -5 -7 -9 -7 -6 -5
1 1 1 2 2 2 2 2 2 2 3 2 2 1 1 -4 -3 -4 -4 -5 -5 -4 -11 -15 -14 -10 -9 -7 -7 -7 -8 -7 -6 -4 -5 -5 -6 -5 -5 -7 -5 -4 -4
2 2 2 3 3 3 3 3 3 2 2 2 -1 -5 -4 -4 -5 -4 -4 -5 -5 -4 -11 -14 -15 -14 -13 -11 -10 -10 -9 -8 -7 -6 -5 -5 -5 -4 -6 -5 -5 -4 -5

GFSSE_850_dewp_027.txt.gz
Dewpoint
13 13 13 12 11 10 10 10 10 9 9 7 4 -1 -4 -4 -5 -5 -5 -6 -7 -8 -9 -9 -8 -7 -7 -6 -6 -5 -4 -2 -1 -0 2 4 5 6 8 9 8 9 8
13 13 13 12 11 11 10 10 9 8 6 -1 -5 -5 -5 -6 -8 -8 -12 -15 -15 -15 -15 -14 -13 -13 -14 -14 -13 -8 -3 0 2 4 5 6 7 7 9 10 8 9 8
12 13 13 12 11 10 10 9 8 5 -2 -4 -4 -5 -8 -10 -11 -15 -15 -15 -14 -13 -13 -13 -13 -13 -13 -13 -13 -13 -9 -1 3 5 6 7 7 8 9 9 9 9 9
12 13 12 12 10 10 10 8 4 -3 -4 -4 -5 -7 -12 -9 -10 -13 -13 -12 -11 -11 -10 -9 -9 -9 -8 -8 -10 -11 -10 -7 0 5 7 7 8 9 9 9 9 8 8
12 13 12 11 10 10 8 4 -3 -3 -4 -5 -5 -11 -10 -8 -9 -10 -10 -8 -6 -3 -2 -2 -3 -4 -4 -3 -3 -3 -7 -5 -1 3 7 8 8 9 9 8 5 5 8
13 12 11 11 11 9 5 -2 -3 -3 -5 -5 -7 -11 -7 -7 -7 -4 -2 -1 -2 -4 -3 -2 -1 -1 -3 -5 -5 -3 -2 -1 2 6 8 9 8 8 8 6 7 7 7
12 12 11 11 10 6 0 -2 -2 -5 -6 -6 -10 -7 -5 -2 0 -2 -2 -4 -5 -5 -5 -5 -5 -5 -5 -5 -5 -5 -1 3 3 4 4 5 5 6 6 8 9 9 9
12 12 12 12 6 1 -1 -2 -5 -9 -6 -7 -2 -1 1 -1 -4 -3 -3 -5 -5 -5 -5 -4 -5 -5 -5 -6 -6 -5 -6 -5 -1 2 4 4 5 7 7 6 6 5 5
12 12 12 6 2 -1 -2 -4 -8 -6 -6 1 1 1 -0 -2 -3 -4 -4 -4 -5 -5 -4 -4 -4 -4 -3 -4 -4 -4 -5 -6 -6 -6 -6 -2 0 3 4 5 5 4 3
12 12 4 0 -1 -1 -3 -7 -8 -5 1 1 2 0 -1 -2 -2 -3 -3 -4 -4 -4 -3 -3 -3 -2 -2 -2 -2 -2 -2 -3 -4 -5 -6 -6 -6 -3 -0 1 2 2 1
10 1 -1 -5 -6 -8 -10 -8 -5 -2 4 3 3 3 1 0 -1 -2 -2 -2 -2 -1 -0 0 1 1 -1 -2 -2 -2 -1 -1 -2 -3 -4 -5 -4 -4 -4 -3 -2 -2 -2
-1 -5 -11 -14 -14 -12 -9 -6 -2 4 4 3 3 5 4 2 1 1 -0 0 1 1 2 2 1 -1 -1 -0 0 -0 -0 -1 -1 -1 -2 -3 -4 -4 -3 -1 -2 -3 -3
-5 -3 -5 -6 -9 -6 -3 1 3 5 5 4 3 4 4 4 4 2 -0 1 1 2 2 2 -1 -1 0 1 1 -0 -1 -2 -1 -2 -1 1 -2 -3 -2 -1 -1 0 0
0 1 2 1 3 4 4 6 4 6 7 7 6 4 3 5 5 3 1 1 1 1 2 -1 -1 -0 1 1 -0 -1 -2 -5 -6 -6 -4 -1 1 1 -1 -3 -1 -0 0
4 2 3 6 7 7 7 8 8 8 9 9 8 6 4 4 5 2 1 1 1 2 0 -1 -0 1 0 -1 -2 -3 -4 -5 -6 -7 -8 -9 -8 -2 2 2 0 -3 -3
5 5 4 6 7 7 8 8 8 7 8 10 8 8 6 3 5 3 2 3 3 2 2 1 1 -1 -2 -3 -3 -3 -4 -5 -5 -6 -7 -9 -11 -13 -13 -13 -10 -8 -3
6 7 7 6 7 7 8 8 7 5 7 8 8 7 6 4 5 5 5 4 3 2 2 1 -1 -1 -1 -1 -2 -3 -4 -4 -6 -8 -9 -8 -7 -8 -9 -12 -12 -11 -10
6 8 8 8 8 9 9 6 5 6 7 7 7 6 6 5 5 5 4 2 2 2 1 0 0 0 0 -1 -3 -5 -7 -10 -15 -17 -15 -12 -10 -9 -7 -6 -6 -7 -8
7 8 9 9 7 9 8 6 8 8 8 7 7 6 6 5 5 5 3 3 2 0 0 1 1 1 -2 -5 -9 -14 -18 -23 -26 -24 -14 -7 -8 -9 -9 -9 -8 -6 -5
5 6 9 10 8 8 6 7 9 7 7 5 5 5 4 3 3 2 2 1 -0 1 1 1 -2 -7 -12 -18 -22 -18 -26 -26 -20 -11 -10 -15 -11 -8 -13 -14 -16 -17 -15
7 8 9 9 8 7 8 8 7 4 5 5 0 1 2 1 2 1 0 0 1 0 -3 -7 -9 -11 -16 -20 -11 -6 -10 -16 -4 -13 -8 -6 -8 -14 -13 -15 -13 -15 -19
8 9 10 9 8 7 6 6 5 4 0 0 -0 0 1 1 1 1 1 0 -4 -8 -9 -8 -8 -10 -14 -19 -16 -5 -7 -8 -3 -6 -6 -10 -8 -10 -6 -9 -11 -11 -12
8 7 7 7 7 4 4 4 1 0 1 1 1 1 1 1 1 1 -1 -4 -7 -6 -7 -7 -7 -10 -12 -10 -14 -4 -5 -6 -4 -5 -5 -5 -4 -5 -5 -6 -4 -4 -4
3 1 1 2 2 2 3 2 1 2 2 2 2 2 2 1 -2 -6 -4 -6 -7 -6 -6 -6 -6 -10 -14 -6 -7 -4 -5 -5 -6 -7 -7 -6 -6 -6 -6 -4 -4 -4 -3
0 1 1 1 1 1 2 2 2 3 3 3 2 2 -2 -5 -7 -8 -7 -6 -5 -4 -4 -5 -6 -5 -13 -12 -5 -6 -6 -6 -6 -6 -7 -8 -8 -8 -6 -6 -4 -4 -5
1 1 2 2 2 3 3 3 3 3 2 1 -2 -5 -6 -6 -4 -3 -4 -4 -3 -3 -3 -4 -4 -6 -9 -12 -8 -7 -8 -8 -8 -8 -8 -9 -10 -9 -9 -8 -6 -5 -5